Date String (YYYY-MM-DD hh:mm:ss) UTC,Instrument flags,Ambient pressure (hPa),Sample flow (lpm),Bypass flow (lpm),Sample temperature (°C),Ambient temperature (°C),ASC tube jacket temperature (°C),LED temperature (°C),Box temperature (°C),Sample RH (%),Span deviation,Mass concentration (μg/m³),Mass concentration (μg/m³),Mass concentration (μg/m³)
DateTimeUTC,F1_M11,P_M11,Q1_M11,Q2_M11,T1_M11,T2_M11,T3_M11,T4_M11,T5_M11,U1_M11,ZSPAN_M11,X0_M11,X2_M11,X1_M11
2023-05-18 12:00:00,,0830.7,5.01,0.00,29.4,27.6,00.0,37.9,31.0,26.1,0001.2,0009.60,0005.70,0005.01
2023-05-18 12:01:00,,0830.7,4.99,0.00,29.4,27.6,00.0,37.9,31.0,26.1,0002.1,0009.69,0005.70,0004.99
2023-05-18 12:02:00,,0830.7,5.00,0.00,29.4,27.6,00.0,37.9,31.0,26.2,0002.5,0009.75,0005.72,0004.99
2023-05-18 12:03:00,,0830.7,5.00,0.00,29.4,27.6,00.0,37.9,30.9,26.2,0000.0,0009.71,0005.70,0004.98
2023-05-18 12:04:00,,0830.7,5.01,0.00,29.4,27.6,00.0,37.8,30.9,26.2,0003.0,0009.76,0005.68,0004.99
2023-05-18 12:05:00,,0830.7,5.01,0.00,29.4,27.6,00.0,37.8,30.9,26.1,0003.8,0009.71,0005.67,0004.99
2023-05-18 12:06:00,,0830.7,5.00,0.00,29.4,27.6,00.0,37.8,30.9,26.0,0002.3,0009.39,0005.70,0004.97
2023-05-18 12:07:00,,0830.7,4.98,0.00,29.4,27.6,00.0,37.8,30.9,25.9,0003.5,0009.93,0005.70,0004.97
2023-05-18 12:08:00,,0830.7,5.01,0.00,29.4,27.6,00.0,37.8,30.9,25.9,0000.0,0010.01,0005.72,0004.99
2023-05-18 12:09:00,,0830.8,5.01,0.00,29.4,27.6,00.0,37.8,30.9,25.9,0001.9,0010.07,0005.72,0005.00
2023-05-18 12:10:00,,0830.8,4.99,0.00,29.4,27.6,00.0,37.8,30.9,25.9,0001.0,0010.11,0005.70,0005.00
2023-05-18 12:11:00,,0830.8,4.98,0.00,29.4,27.6,00.0,37.8,30.9,26.0,0004.0,0010.18,0005.73,0005.01
2023-05-18 12:12:00,,0830.7,5.01,0.00,29.4,27.6,00.0,37.8,30.9,26.0,0003.9,0010.08,0005.72,0005.01
2023-05-18 12:13:00,,0830.7,5.00,0.00,29.4,27.6,00.0,37.8,30.9,26.0,0003.3,0010.11,0005.75,0005.03
2023-05-18 12:14:00,,0830.7,4.99,0.00,29.3,27.6,00.0,37.8,30.9,26.0,0002.7,0010.18,0005.78,0005.03
2023-05-18 12:15:00,,0830.7,5.00,0.00,29.3,27.6,00.0,37.8,30.9,26.0,0002.4,0010.00,0005.78,0005.01
2023-05-18 12:16:00,,0830.8,5.01,0.00,29.3,27.6,00.0,37.8,30.9,25.9,0000.0,0010.01,0005.77,0005.01
2023-05-18 12:17:00,,0830.8,5.01,0.00,29.3,27.6,00.0,37.8,30.9,25.9,0000.0,0009.80,0005.73,0005.01
2023-05-18 12:18:00,,0830.8,5.01,0.00,29.3,27.6,00.0,37.7,30.9,26.0,0000.0,0009.22,0005.70,0005.01
2023-05-18 12:19:00,,0830.8,5.00,0.00,29.3,27.5,00.0,37.7,30.9,25.9,0001.6,0009.14,0005.71,0005.02
2023-05-18 12:20:00,,0830.8,4.98,0.00,29.3,27.5,00.0,37.7,30.9,25.9,0001.9,0009.20,0005.75,0005.02
2023-05-18 12:21:00,,0830.8,5.02,0.00,29.3,27.5,00.0,37.7,30.9,25.8,0002.8,0009.19,0005.75,0005.02
2023-05-18 12:22:00,,0830.8,5.01,0.00,29.3,27.5,00.0,37.7,30.9,25.8,0000.0,0009.15,0005.72,0005.01
2023-05-18 12:23:00,,0830.8,4.99,0.00,29.3,27.5,00.0,37.7,30.9,25.8,0000.0,0009.07,0005.69,0005.02
2023-05-18 12:24:00,,0830.8,4.99,0.00,29.3,27.5,00.0,37.7,30.9,25.9,0000.0,0008.97,0005.65,0005.01
2023-05-18 12:25:00,,0830.9,5.01,0.00,29.3,27.5,00.0,37.7,30.9,25.9,0000.0,0008.94,0005.61,0005.01
2023-05-18 12:26:00,,0830.8,5.01,0.00,29.3,27.6,00.0,37.7,30.9,25.9,0001.3,0008.93,0005.61,0005.03
2023-05-18 12:27:00,,0830.8,4.98,0.00,29.3,27.6,00.0,37.7,30.9,25.7,0003.0,0009.24,0005.59,0005.03
2023-05-18 12:28:00,,0830.8,4.99,0.00,29.3,27.6,00.0,37.7,30.9,25.7,0000.5,0009.82,0005.60,0005.03
2023-05-18 12:29:00,,0830.9,5.00,0.00,29.3,27.6,00.0,37.7,30.9,25.8,0000.0,0009.89,0005.65,0005.04
2023-05-18 12:30:00,,0830.9,5.01,0.00,29.3,27.6,00.0,37.7,30.9,25.7,0000.0,0009.90,0005.64,0005.04
2023-05-18 12:31:00,,0830.8,5.01,0.00,29.3,27.6,00.0,37.7,30.9,25.7,0000.0,0009.76,0005.62,0005.04
2023-05-18 12:32:00,,0830.9,5.01,0.00,29.3,27.6,00.0,37.7,30.9,25.9,0000.0,0009.72,0005.63,0005.04
2023-05-18 12:33:00,,0830.9,5.00,0.00,29.3,27.6,00.0,37.7,30.9,25.9,0000.0,0009.74,0005.64,0005.05
2023-05-18 12:34:00,,0830.9,4.99,0.00,29.3,27.6,00.0,37.7,30.9,25.7,0000.0,0009.79,0005.68,0005.05
2023-05-18 12:35:00,,0830.8,5.00,0.00,29.3,27.6,00.0,37.7,30.9,25.7,0000.0,0009.79,0005.68,0005.05
2023-05-18 12:36:00,,0830.9,5.01,0.00,29.3,27.6,00.0,37.7,30.9,25.8,0000.0,0009.77,0005.69,0005.04
2023-05-18 12:37:00,,0830.8,5.00,0.00,29.3,27.6,00.0,37.7,30.9,25.6,0000.0,0009.76,0005.66,0005.03
2023-05-18 12:38:00,,0830.8,5.01,0.00,29.3,27.6,00.0,37.7,30.9,25.5,0000.0,0009.44,0005.68,0005.02
2023-05-18 12:39:00,,0830.8,5.00,0.00,29.3,27.6,00.0,37.7,30.9,25.6,0000.0,0008.77,0005.67,0005.01
2023-05-18 12:40:00,,0830.8,4.99,0.00,29.3,27.6,00.0,37.7,30.9,25.9,0000.0,0008.76,0005.63,0004.99
2023-05-18 12:41:00,,0830.9,4.99,0.00,29.3,27.6,00.0,37.7,30.9,26.1,0000.0,0008.96,0005.60,0004.98
2023-05-18 12:42:00,,0830.8,5.01,0.00,29.3,27.6,00.0,37.7,30.9,26.2,0000.0,0009.05,0005.61,0004.99
2023-05-18 12:43:00,,0830.9,5.01,0.00,29.3,27.6,00.0,37.7,30.9,26.1,0000.0,0009.29,0005.65,0005.00
2023-05-18 12:44:00,,0830.9,5.01,0.00,29.3,27.6,00.0,37.7,30.9,26.2,0000.0,0009.36,0005.65,0004.99
2023-05-18 12:45:00,,0830.9,4.98,0.00,29.3,27.6,00.0,37.7,30.9,26.0,0000.0,0009.33,0005.61,0004.98
2023-05-18 12:46:00,,0831.0,5.00,0.00,29.3,27.6,00.0,37.7,30.9,25.8,0000.0,0009.43,0005.64,0004.98
2023-05-18 12:47:00,,0830.9,5.00,0.00,29.3,27.6,00.0,37.7,30.9,25.6,0000.0,0009.43,0005.66,0004.99
2023-05-18 12:48:00,,0830.9,5.00,0.00,29.3,27.6,00.0,37.7,30.9,25.6,0000.0,0009.43,0005.66,0004.98
2023-05-18 12:49:00,,0830.9,5.00,0.00,29.3,27.6,00.0,37.7,30.9,25.6,0000.0,0009.37,0005.64,0004.99
2023-05-18 12:50:00,,0830.9,5.00,0.00,29.3,27.6,00.0,37.7,30.9,25.5,0000.0,0009.40,0005.64,0005.00
2023-05-18 12:51:00,,0830.9,4.99,0.00,29.3,27.6,00.0,37.7,30.9,25.4,0002.1,0009.52,0005.70,0005.00
2023-05-18 12:52:00,,0830.9,5.00,0.00,29.3,27.6,00.0,37.7,30.9,25.3,0003.7,0009.32,0005.71,0004.99
2023-05-18 12:53:00,,0830.9,5.01,0.00,29.3,27.6,00.0,37.7,30.9,25.3,0002.4,0009.29,0005.67,0004.97
2023-05-18 12:54:00,,0830.9,5.00,0.00,29.3,27.6,00.0,37.7,30.9,25.6,0000.0,0009.10,0005.63,0004.97
2023-05-18 12:55:00,,0831.0,5.00,0.00,29.3,27.6,00.0,37.7,30.9,25.2,0000.0,0009.06,0005.62,0004.95
2023-05-18 12:56:00,,0831.0,4.98,0.00,29.3,27.6,00.0,37.7,30.9,25.1,0003.1,0009.03,0005.61,0004.93
2023-05-18 12:57:00,,0831.0,5.01,0.00,29.3,27.6,00.0,37.7,30.9,25.0,0002.9,0009.04,0005.61,0004.92
2023-05-18 12:58:00,,0831.1,5.01,0.00,29.3,27.6,00.0,37.7,30.9,25.0,0003.0,0009.11,0005.61,0004.91
2023-05-18 12:59:00,,0831.1,5.00,0.00,29.3,27.6,00.0,37.7,30.9,25.2,0002.4,0009.95,0005.65,0004.91
